When you browse on this site, cookies collect data to enhance your experience and personalize the content and advertising you see.
Visit our Privacy Policy to learn more. By continuing to use the site, you agree to this use of cookies and data.
  • In United Kingdom
  • List of Countries
  • For 7 days
  • Water Temperature
  • Weather Map
  • Weather Widgets
  • user-avatar
    Login

    Hourly Weather Pest County

    Today, 23 August, Friday

    Time Temperature Precipitation Wind Pressure Humidity
    00:00 +20°C° 0.1 mm 2 mps 747 mmHg 77%
    01:00 +20°C° 0 mm 2 mps 748 mmHg 75%
    02:00 +19°C° 0 mm 2 mps 748 mmHg 76%
    03:00 +19°C° 0 mm 2 mps 748 mmHg 76%
    04:00 +19°C° 0 mm 2 mps 748 mmHg 77%
    05:00 +20°C° 0 mm 2 mps 748 mmHg 74%
    06:00 +20°C° 0 mm 2 mps 748 mmHg 71%
    07:00 +21°C° 0 mm 2 mps 748 mmHg 65%
    08:00 +24°C° 0 mm 2 mps 748 mmHg 59%
    09:00 +26°C° 0 mm 2 mps 749 mmHg 53%
    10:00 +28°C° 0 mm 2 mps 749 mmHg 48%
    11:00 +29°C° 0 mm 2 mps 748 mmHg 45%
    12:00 +30°C° 0 mm 2 mps 748 mmHg 42%
    13:00 +31°C° 0 mm 2 mps 748 mmHg 38%
    14:00 +31°C° 0 mm 2 mps 748 mmHg 38%
    15:00 +31°C° 0 mm 2 mps 747 mmHg 39%
    16:00 +31°C° 0 mm 2 mps 747 mmHg 39%
    17:00 +30°C° 0 mm 2 mps 747 mmHg 44%
    18:00 +28°C° 0 mm 2 mps 747 mmHg 49%
    19:00 +26°C° 0 mm 2 mps 747 mmHg 54%
    20:00 +26°C° 0 mm 2 mps 747 mmHg 57%
    21:00 +25°C° 0 mm 2 mps 747 mmHg 60%
    22:00 +24°C° 0 mm 2 mps 747 mmHg 64%
    23:00 +24°C° 0 mm 2 mps 747 mmHg 66%

    Tomorrow, 24 August, Saturday

    Time Temperature Precipitation Wind Pressure Humidity
    00:00 +23°C° 0 mm 2 mps 746 mmHg 68%
    01:00 +23°C° 0 mm 2 mps 746 mmHg 71%
    02:00 +23°C° 0 mm 2 mps 746 mmHg 72%
    03:00 +21°C° 0 mm 2 mps 746 mmHg 73%
    04:00 +21°C° 0 mm 2 mps 746 mmHg 74%
    05:00 +21°C° 0.1 mm 2 mps 746 mmHg 73%
    06:00 +22°C° 0.1 mm 3 mps 746 mmHg 71%
    07:00 +22°C° 0.1 mm 3 mps 746 mmHg 70%
    08:00 +25°C° 0 mm 3 mps 746 mmHg 65%
    09:00 +26°C° 0 mm 3 mps 746 mmHg 61%
    10:00 +28°C° 0 mm 3 mps 747 mmHg 56%
    11:00 +29°C° 0 mm 3 mps 746 mmHg 52%
    12:00 +30°C° 0 mm 3 mps 746 mmHg 49%
    13:00 +31°C° 0 mm 3 mps 746 mmHg 45%
    14:00 +31°C° 0 mm 3 mps 745 mmHg 44%
    15:00 +31°C° 0 mm 3 mps 745 mmHg 44%
    16:00 +33°C° 0 mm 3 mps 744 mmHg 43%
    17:00 +30°C° 0 mm 3 mps 744 mmHg 49%
    18:00 +28°C° 0 mm 3 mps 744 mmHg 54%
    19:00 +27°C° 0 mm 3 mps 744 mmHg 59%
    20:00 +26°C° 0.1 mm 3 mps 744 mmHg 63%
    21:00 +25°C° 0.1 mm 3 mps 744 mmHg 66%
    22:00 +24°C° 0.1 mm 3 mps 744 mmHg 69%
    23:00 +24°C° 0.1 mm 3 mps 744 mmHg 71%

    Day after tomorrow, 25 August, Sunday

    Time Temperature Precipitation Wind Pressure Humidity
    00:00 +24°C° 0.1 mm 2 mps 744 mmHg 72%
    01:00 +23°C° 0.1 mm 2 mps 744 mmHg 74%
    02:00 +23°C° 0.2 mm 2 mps 744 mmHg 76%
    03:00 +21°C° 0.2 mm 2 mps 744 mmHg 78%
    04:00 +21°C° 0.2 mm 2 mps 744 mmHg 79%
    05:00 +22°C° 0.1 mm 3 mps 744 mmHg 77%
    06:00 +22°C° 0.1 mm 3 mps 744 mmHg 75%
    07:00 +24°C° 0.1 mm 3 mps 744 mmHg 72%
    08:00 +26°C° 0.1 mm 3 mps 745 mmHg 67%
    09:00 +27°C° 0.1 mm 3 mps 745 mmHg 61%
    10:00 +29°C° 0.1 mm 3 mps 745 mmHg 55%
    11:00 +30°C° 0 mm 3 mps 745 mmHg 50%
    12:00 +31°C° 0 mm 3 mps 745 mmHg 45%
    13:00 +34°C° 0 mm 2 mps 744 mmHg 39%
    14:00 +34°C° 0 mm 2 mps 744 mmHg 39%
    15:00 +34°C° 0 mm 2 mps 744 mmHg 38%
    16:00 +34°C° 0 mm 2 mps 744 mmHg 37%
    17:00 +31°C° 0 mm 2 mps 743 mmHg 41%
    18:00 +30°C° 0 mm 2 mps 743 mmHg 46%
    19:00 +28°C° 0 mm 2 mps 743 mmHg 50%
    20:00 +27°C° 0 mm 2 mps 744 mmHg 53%
    21:00 +27°C° 0 mm 2 mps 744 mmHg 57%
    22:00 +26°C° 0 mm 2 mps 744 mmHg 60%
    23:00 +25°C° 0 mm 2 mps 744 mmHg 62%

    26 August, Monday

    Time Temperature Precipitation Wind Pressure Humidity
    00:00 +25°C° 0 mm 2 mps 744 mmHg 65%
    01:00 +24°C° 0 mm 1 mps 744 mmHg 67%
    02:00 +24°C° 0.1 mm 2 mps 744 mmHg 70%
    03:00 +23°C° 0.1 mm 2 mps 744 mmHg 72%
    04:00 +22°C° 0.1 mm 3 mps 744 mmHg 74%
    05:00 +22°C° 0.2 mm 3 mps 744 mmHg 73%
    06:00 +22°C° 0.2 mm 3 mps 744 mmHg 73%
    07:00 +24°C° 0.2 mm 3 mps 744 mmHg 72%
    08:00 +25°C° 0.1 mm 2 mps 745 mmHg 65%
    09:00 +27°C° 0.1 mm 2 mps 745 mmHg 58%
    10:00 +29°C° 0.1 mm 2 mps 745 mmHg 51%
    11:00 +30°C° 0 mm 2 mps 745 mmHg 47%
    12:00 +31°C° 0 mm 2 mps 745 mmHg 43%
    13:00 +34°C° 0 mm 2 mps 745 mmHg 39%
    14:00 +34°C° 0 mm 3 mps 744 mmHg 38%
    15:00 +34°C° 0 mm 3 mps 744 mmHg 37%
    16:00 +34°C° 0 mm 3 mps 743 mmHg 37%
    17:00 +31°C° 0 mm 3 mps 743 mmHg 41%
    18:00 +30°C° 0 mm 3 mps 743 mmHg 45%
    19:00 +28°C° 0 mm 3 mps 743 mmHg 50%
    20:00 +28°C° 0 mm 3 mps 743 mmHg 52%
    21:00 +27°C° 0 mm 3 mps 744 mmHg 55%
    22:00 +26°C° 0 mm 3 mps 744 mmHg 58%
    23:00 +26°C° 0.2 mm 3 mps 744 mmHg 61%

    27 August, Tuesday

    Time Temperature Precipitation Wind Pressure Humidity
    00:00 +25°C° 0.2 mm 2 mps 744 mmHg 64%
    01:00 +24°C° 0.2 mm 2 mps 744 mmHg 67%
    02:00 +24°C° 0.1 mm 2 mps 744 mmHg 68%
    03:00 +24°C° 0.1 mm 2 mps 744 mmHg 70%
    04:00 +24°C° 0.1 mm 3 mps 744 mmHg 71%
    05:00 +24°C° 0 mm 3 mps 744 mmHg 70%
    06:00 +25°C° 0 mm 3 mps 744 mmHg 69%
    07:00 +25°C° 0 mm 3 mps 744 mmHg 67%
    08:00 +27°C° 0 mm 3 mps 744 mmHg 61%
    09:00 +28°C° 0 mm 3 mps 745 mmHg 55%
    10:00 +30°C° 0 mm 2 mps 745 mmHg 49%
    11:00 +31°C° 0 mm 2 mps 745 mmHg 44%
    12:00 +32°C° 0 mm 2 mps 745 mmHg 39%
    13:00 +34°C° 0 mm 2 mps 744 mmHg 35%
    14:00 +35°C° 0 mm 2 mps 744 mmHg 34%
    15:00 +35°C° 0 mm 2 mps 744 mmHg 33%
    16:00 +35°C° 0 mm 2 mps 744 mmHg 32%
    17:00 +32°C° 0 mm 1 mps 744 mmHg 36%
    18:00 +30°C° 0 mm 1 mps 744 mmHg 40%
    19:00 +29°C° 0 mm 1 mps 743 mmHg 44%
    20:00 +28°C° 0 mm 1 mps 744 mmHg 47%
    21:00 +27°C° 0 mm 2 mps 744 mmHg 50%
    22:00 +26°C° 0 mm 2 mps 744 mmHg 53%
    23:00 +26°C° 0 mm 2 mps 744 mmHg 56%

    28 August, Wednesday

    Time Temperature Precipitation Wind Pressure Humidity
    00:00 +25°C° 0 mm 2 mps 744 mmHg 59%
    01:00 +25°C° 0 mm 2 mps 744 mmHg 62%
    02:00 +25°C° 0 mm 2 mps 744 mmHg 64%
    03:00 +24°C° 0 mm 2 mps 743 mmHg 66%
    04:00 +24°C° 0 mm 2 mps 743 mmHg 68%
    05:00 +24°C° 0 mm 2 mps 743 mmHg 66%
    06:00 +25°C° 0 mm 2 mps 743 mmHg 64%
    07:00 +26°C° 0 mm 2 mps 744 mmHg 61%
    08:00 +28°C° 0 mm 2 mps 744 mmHg 55%
    09:00 +29°C° 0 mm 2 mps 744 mmHg 49%
    10:00 +31°C° 0 mm 2 mps 744 mmHg 43%
    11:00 +32°C° 0 mm 2 mps 743 mmHg 40%
    12:00 +34°C° 0 mm 2 mps 743 mmHg 36%
    13:00 +35°C° 0 mm 2 mps 743 mmHg 32%
    14:00 +35°C° 0 mm 2 mps 742 mmHg 32%
    15:00 +35°C° 0 mm 2 mps 742 mmHg 31%
    16:00 +35°C° 0 mm 2 mps 741 mmHg 31%
    17:00 +32°C° 0 mm 2 mps 741 mmHg 35%
    18:00 +31°C° 0 mm 2 mps 741 mmHg 39%
    19:00 +29°C° 0 mm 2 mps 741 mmHg 43%
    20:00 +28°C° 0 mm 2 mps 741 mmHg 46%
    21:00 +27°C° 0 mm 2 mps 741 mmHg 49%
    22:00 +26°C° 0 mm 2 mps 741 mmHg 52%
    23:00 +26°C° 0 mm 2 mps 741 mmHg 52%
    Show more